Regional Weather Roundup
Issued by NWS Boston, MA

Home | Current Version | Previous Version | Text Only | Print | Product List | Glossary On
Versions: 1 2 3 4 5 6 7 8 9 10 11 12 13 14 15 16 17 18 19 20 21 22 23 24 25 26 27 28 29 30 31 32 33 34 35 36 37 38 39 40 41 42 43 44 45 46 47 48 49 50
000
ASUS41 KBOX 222310
RWRBOX

REGIONAL WEATHER ROUNDUP
NATIONAL WEATHER SERVICE TAUNTON MA
600 PM EST MON JAN 22 2018

NOTE:  "FAIR" INDICATES FEW OR NO CLOUDS BELOW 12,000 FEET WITH NO
SIGNIFICANT WEATHER AND/OR OBSTRUCTIONS TO VISIBILITY.

MAZALL-230000-
EASTERN MASSACHUSETTS

CITY           SKY/WX    TMP DP  RH WIND       PRES   REMARKS
BOSTON         CLOUDY    38  37  97 NE12      30.27S FOG     WCI  30
BEVERLY        LGT RAIN  38  37  97 NE8       30.27S FOG
LAWRENCE       CLOUDY    35  32  88 NE10      30.29S FOG     WCI  27
BEDFORD        CLOUDY    35  34  96 NE6       30.26S FOG     WCI  30
BLUE HILL        N/A     36  36 100 NE12      30.22S WCI  28
NORWOOD        CLOUDY    40  38  93 NE5       30.26F FOG
MARSHFIELD     CLOUDY    39  37  93 VRB3      30.26R
PLYMOUTH       CLOUDY    39  37  92 NE6       30.25S FOG
TAUNTON        CLOUDY    38  37  97 NE3       30.25R FOG
NEW BEDFORD    CLOUDY    38  38 100 E5        30.24R
$$

MAZALL-230000-
CAPE COD AND THE ISLANDS

CITY           SKY/WX    TMP DP  RH WIND       PRES   REMARKS
FALMOUTH       CLOUDY    37  37 100 E7        30.25  FOG
HYANNIS        FOG       39  38  96 E6        30.23F VSB 1
CHATHAM        CLOUDY    41  41 100 E7        30.27S FOG
PROVINCETOWN   LGT RAIN  39  36  89 E5        30.27S
NANTUCKET      CLOUDY    40  40 100 E13       30.25S
MARTHAS VNYRD  CLOUDY   N/A N/A N/A E10       30.24R HAZE
$$

MAZALL-230000-
CENTRAL AND WESTERN MASSACHUSETTS

CITY           SKY/WX    TMP DP  RH WIND       PRES   REMARKS
WORCESTER      FRZ RAIN  31  29  92 NE9G17    30.20F VSB 1/4 WCI  23
FITCHBURG      CLOUDY    34  32  92 NE8       30.28S FOG     WCI  27
ORANGE         CLOUDY    33  31  92 NE9       30.24S WCI  25
SPRINGFIELD    DRIZZLE   36  34  93 E5        30.19  FOG
WESTFIELD      CLOUDY    36  36 100 VRB5      30.20F
NORTH ADAMS    CLOUDY    36  32  85 E12G20    30.16S WCI  28
PITTSFIELD     LGT RAIN  35  33  92 E6        30.13S FOG     WCI  30
$$

RIZALL-230000-
RHODE ISLAND

CITY           SKY/WX    TMP DP  RH WIND       PRES   REMARKS
PROVIDENCE     CLOUDY    39  39 100 NE6       30.24S FOG
NEWPORT        CLOUDY    38  38 100 VRB6      30.23S
BLOCK ISLAND   LGT RAIN  39  38  96 E12       30.22R FOG     WCI  32
SMITHFIELD     MIX PCPN N/A N/A N/A NE8       30.23S
WESTERLY       CLOUDY    41  39  93 NE10      30.21F FOG
$$

CTZALL-230000-
CONNECTICUT

CITY           SKY/WX    TMP DP  RH WIND       PRES   REMARKS
BRADLEY INTL   LGT RAIN  37  36  96 NE7       30.20S FOG     WCI  32
HARTFORD       CLOUDY    40  38  93 CALM      30.21R FOG
BRIDGEPORT     CLOUDY    40  36  86 E14       30.18S
DANBURY        CLOUDY    40  38  93 E6        30.17R FOG
GROTON         LGT RAIN  41  36  82 E12       30.20S
NEW HAVEN      CLOUDY    43  38  82 E8        30.17S
CHESTER        CLOUDY    41  37  87 E7        30.18S
MERIDEN        CLOUDY    39  36  89 N3        30.19S FOG
WILLIMANTIC    CLOUDY    39  36  89 E6        30.22R
OXFORD         FOG       37  37 100 E8        30.16S VSB 1/4 WCI  31
$$

MEZ002-015-021-024-NHZ003-005-008-011-012-014-VTZ005-008-230000-
NORTHERN NEW ENGLAND

CITY           SKY/WX    TMP DP  RH WIND       PRES   REMARKS
PORTLAND ME    CLOUDY    23  20  88 NE13      30.37F FOG     WCI  11
BANGOR ME      CLOUDY    21   9  59 SE3       30.42S
CONCORD NH     CLOUDY    27  23  85 E8        30.31R WCI  19
MANCHESTER NH  FRZ DRZL  29  26  89 E9        30.29S FOG     WCI  20
NASHUA NH      LGT SNOW  30  29  96 N6        30.30S FOG     WCI  24
PORTSMOUTH NH  FRZ DRZL  29  27  93 NE14      30.30F FOG     WCI  18
JAFFREY NH     CLOUDY    30  29  96 CALM      30.23S FOG
KEENE NH       CLOUDY    31  28  89 N3        30.24S
BURLINGTON VT  FRZ RAIN  24  20  84 CALM      30.15F
MT. WASHINGTON FOG       23  23 100 SW23        N/A  VSB 0   WCI   7
$$

NYZ052-076-230000-
EASTERN NEW YORK

CITY           SKY/WX    TMP DP  RH WIND       PRES   REMARKS
ALBANY         LGT RAIN  33  29  85 E5        30.12F FOG     WCI  29
NEW YORK CITY  CLOUDY    40  36  86 NE8       30.15S
$$

ANZALL-230000-
MARINE OBSERVATIONS

STATION/POSITION TIME  TEMP    WIND        PRES    VSBY  WAVE
                       AIR SEA DIR/SP/G                  HT/PER
                 (UTC) (F)     (DEG/KT/KT) (MB)    (MI)  (FT/S)
BOSTON BUOY      2250   40 40   60/  6/  6 1024.3S         5/ 7
BUZZARDS BAY     2200   37      60/ 14/ 16 1023.8F
NANTUCKET SOUND  2250   38 37   70/ 12/ 14 1024.0F         0
MASS BAY-STELLWA 2204   39 39              1024.1R         7/ 6
ISLE OF SHOALS   2200   34      50/ 24/ 27 1025.2R
S OF BLOCK IS    2243      41                N/A           3/ 4
$$

......................KEY.........................
  SKY/WX - SKY CONDITION/PRESENT WEATHER
  TMP    - TEMPERATURE IN FAHRENHEIT
  DWPT   - DEWPOINT IN FAHRENHEIT
  RH     - RELATIVE HUMIDITY IN PERCENT
  WIND   - DIRECTION AND SPEED IN MPH
  PRES   - MEAN SEA LEVEL PRESSURE IN INCHES OF HG
  WCI    - WIND CHILL INDEX
  VSB    - VISIBILITY IN MILES
  HX     - HEAT INDEX
  TC     - TEMPERATURE IN CELSIUS
  VRB    - VARIABLE WIND DIRECTION
  N/A    - NOT AVAILABLE



USA.gov is the U.S. government's official web portal to all federal, state and local government web resources and services.